DLH8WF EDDB-EDDM

Flight info

Callsign DLH8WF
Flight time 0h 57m
Altitude 28000
Route LUROS3Z LUROS Y211 BEBKU Z36 MAREM DCT VESUB T106 TUSTO T108 LANDU LANDU2B
Aircraft A321/M-SDE3FGHIRWY/LB1

Departure

Time 2026-05-07 04:11
Airport Berlin Brandenburg Airport (EDDB)

Arrival

Time 2026-05-07 05:08
Airport Munich Airport (EDDM)
Time Latitude Longitude Altitude Speed Heading
2026-05-07 03:59 52.36472 13.50382 154 ft 0 kts 158°
2026-05-07 04:00 52.36471 13.50383 154 ft 1 kts 158°
2026-05-07 04:00 52.36452 13.50396 154 ft 5 kts 158°
2026-05-07 04:00 52.36400 13.50429 154 ft 11 kts 159°
2026-05-07 04:00 52.36322 13.50478 154 ft 13 kts 159°
2026-05-07 04:01 52.36238 13.50531 154 ft 13 kts 158°
2026-05-07 04:01 52.36148 13.50589 154 ft 14 kts 159°
2026-05-07 04:01 52.36053 13.50650 154 ft 15 kts 159°
2026-05-07 04:01 52.35952 13.50713 154 ft 16 kts 159°
2026-05-07 04:02 52.35861 13.50770 154 ft 9 kts 160°
2026-05-07 04:02 52.35805 13.50804 154 ft 9 kts 160°
2026-05-07 04:02 52.35743 13.50829 154 ft 9 kts 188°
2026-05-07 04:02 52.35706 13.50747 154 ft 10 kts 247°
2026-05-07 04:03 52.35680 13.50641 154 ft 10 kts 248°
2026-05-07 04:03 52.35653 13.50526 154 ft 11 kts 249°
2026-05-07 04:03 52.35623 13.50401 154 ft 12 kts 249°
2026-05-07 04:03 52.35591 13.50269 154 ft 13 kts 249°
2026-05-07 04:04 52.35559 13.50127 154 ft 14 kts 249°
2026-05-07 04:04 52.35524 13.49977 154 ft 14 kts 249°
2026-05-07 04:04 52.35486 13.49821 154 ft 15 kts 248°
2026-05-07 04:04 52.35446 13.49656 154 ft 16 kts 249°
2026-05-07 04:05 52.35405 13.49483 154 ft 17 kts 249°
2026-05-07 04:05 52.35363 13.49304 154 ft 17 kts 249°
2026-05-07 04:05 52.35319 13.49117 154 ft 18 kts 249°
2026-05-07 04:05 52.35273 13.48925 154 ft 19 kts 248°
2026-05-07 04:06 52.35225 13.48726 154 ft 19 kts 249°
2026-05-07 04:06 52.35176 13.48520 154 ft 20 kts 249°
2026-05-07 04:06 52.35126 13.48307 154 ft 20 kts 249°
2026-05-07 04:06 52.35074 13.48090 154 ft 21 kts 249°
2026-05-07 04:07 52.35022 13.47868 154 ft 21 kts 249°
2026-05-07 04:07 52.34967 13.47635 154 ft 22 kts 249°
2026-05-07 04:07 52.34912 13.47404 154 ft 22 kts 248°
2026-05-07 04:07 52.34855 13.47167 154 ft 23 kts 249°
2026-05-07 04:08 52.34801 13.46938 154 ft 15 kts 249°
2026-05-07 04:08 52.34771 13.46809 154 ft 11 kts 249°
2026-05-07 04:08 52.34714 13.46772 154 ft 10 kts 167°
2026-05-07 04:08 52.34649 13.46811 154 ft 10 kts 159°
2026-05-07 04:09 52.34579 13.46854 154 ft 10 kts 160°
2026-05-07 04:09 52.34559 13.46910 154 ft 5 kts 72°
2026-05-07 04:09 52.34563 13.46930 154 ft 0 kts 69°
2026-05-07 04:10 52.34564 13.46931 154 ft 2 kts 69°
2026-05-07 04:10 52.34645 13.47267 154 ft 67 kts 68°
2026-05-07 04:11 52.34894 13.48321 155 ft 129 kts 69°
2026-05-07 04:11 52.35281 13.49952 179 ft 174 kts 68°
2026-05-07 04:11 52.35722 13.51795 822 ft 173 kts 68°
2026-05-07 04:11 52.36032 13.53699 1608 ft 174 kts 80°
2026-05-07 04:12 52.36147 13.55664 2310 ft 173 kts 82°
2026-05-07 04:12 52.36265 13.57617 2900 ft 173 kts 82°
2026-05-07 04:12 52.36387 13.59582 3407 ft 178 kts 81°
2026-05-07 04:12 52.36522 13.61687 3609 ft 200 kts 83°
2026-05-07 04:13 52.36673 13.64073 3776 ft 221 kts 83°
2026-05-07 04:13 52.36831 13.66631 4184 ft 230 kts 82°
2026-05-07 04:13 52.36989 13.69251 4745 ft 233 kts 83°
2026-05-07 04:13 52.37151 13.71905 5266 ft 237 kts 82°
2026-05-07 04:14 52.37315 13.74607 5806 ft 240 kts 83°
2026-05-07 04:14 52.37321 13.77182 6282 ft 245 kts 96°
2026-05-07 04:14 52.36891 13.79999 6503 ft 268 kts 104°
2026-05-07 04:14 52.36352 13.83006 6883 ft 280 kts 106°
2026-05-07 04:15 52.35793 13.86082 7511 ft 283 kts 106°
2026-05-07 04:15 52.35226 13.89190 8136 ft 287 kts 107°
2026-05-07 04:15 52.34651 13.92347 8761 ft 291 kts 107°
2026-05-07 04:15 52.34071 13.95535 9432 ft 293 kts 108°
2026-05-07 04:16 52.33487 13.98749 10060 ft 296 kts 107°
2026-05-07 04:16 52.32895 14.01987 10639 ft 299 kts 109°
2026-05-07 04:16 52.32014 14.05059 11197 ft 300 kts 127°
2026-05-07 04:16 52.30595 14.07535 11752 ft 299 kts 145°
2026-05-07 04:17 52.28746 14.09228 11932 ft 313 kts 163°
2026-05-07 04:17 52.26564 14.09921 12078 ft 328 kts 175°
2026-05-07 04:17 52.24273 14.10357 12245 ft 343 kts 175°
2026-05-07 04:17 52.21880 14.10832 12681 ft 349 kts 174°
2026-05-07 04:18 52.19460 14.11330 13207 ft 352 kts 174°
2026-05-07 04:18 52.17014 14.11843 13739 ft 355 kts 174°
2026-05-07 04:18 52.14559 14.12360 14248 ft 357 kts 174°
2026-05-07 04:18 52.12091 14.12873 14754 ft 359 kts 174°
2026-05-07 04:19 52.09606 14.13385 15257 ft 361 kts 174°
2026-05-07 04:19 52.07112 14.13899 15743 ft 363 kts 174°
2026-05-07 04:19 52.04601 14.14417 16225 ft 365 kts 174°
2026-05-07 04:19 52.02071 14.14942 16704 ft 367 kts 174°
2026-05-07 04:20 51.99527 14.15468 17174 ft 370 kts 174°
2026-05-07 04:20 51.96968 14.15992 17644 ft 372 kts 174°
2026-05-07 04:20 51.94397 14.16515 18111 ft 374 kts 174°
2026-05-07 04:21 51.89202 14.16473 18892 ft 375 kts 192°
2026-05-07 04:21 51.86702 14.15274 19283 ft 376 kts 203°
2026-05-07 04:21 51.84327 14.13611 19657 ft 377 kts 204°
2026-05-07 04:21 51.81911 14.11921 20041 ft 379 kts 204°
2026-05-07 04:22 51.79484 14.10239 20431 ft 381 kts 203°
2026-05-07 04:22 51.77042 14.08553 20817 ft 383 kts 203°
2026-05-07 04:22 51.74587 14.06861 21191 ft 384 kts 203°
2026-05-07 04:22 51.72122 14.05162 21560 ft 386 kts 203°
2026-05-07 04:23 51.69645 14.03454 21928 ft 388 kts 203°
2026-05-07 04:23 51.67159 14.01742 22271 ft 391 kts 203°
2026-05-07 04:23 51.64646 14.00015 22571 ft 394 kts 203°
2026-05-07 04:23 51.62116 13.98283 22921 ft 396 kts 203°
2026-05-07 04:24 51.59575 13.96544 23277 ft 398 kts 203°
2026-05-07 04:24 51.57021 13.94795 23601 ft 400 kts 203°
2026-05-07 04:24 51.54460 13.93041 23925 ft 401 kts 203°
2026-05-07 04:24 51.51886 13.91279 24267 ft 402 kts 202°
2026-05-07 04:25 51.49310 13.89521 24599 ft 403 kts 202°
2026-05-07 04:25 51.46719 13.87782 24928 ft 404 kts 200°
2026-05-07 04:25 51.44018 13.86567 25225 ft 405 kts 191°
2026-05-07 04:25 51.41281 13.85784 25525 ft 406 kts 190°
2026-05-07 04:26 51.38499 13.84989 25841 ft 407 kts 190°
2026-05-07 04:26 51.35712 13.84188 26152 ft 407 kts 190°
2026-05-07 04:26 51.32918 13.83383 26468 ft 408 kts 190°
2026-05-07 04:26 51.30119 13.82574 26769 ft 409 kts 190°
2026-05-07 04:27 51.27316 13.81763 27085 ft 410 kts 191°
2026-05-07 04:27 51.24504 13.80947 27396 ft 411 kts 191°
2026-05-07 04:27 51.21691 13.80133 27711 ft 412 kts 190°
2026-05-07 04:27 51.18871 13.79321 28036 ft 412 kts 190°
2026-05-07 04:28 51.16040 13.78509 28346 ft 413 kts 190°
2026-05-07 04:28 51.14163 13.77970 28545 ft 414 kts 190°
2026-05-07 04:28 51.10374 13.76888 28929 ft 415 kts 190°
2026-05-07 04:28 51.08487 13.76353 29115 ft 415 kts 190°
2026-05-07 04:29 51.05642 13.75545 29385 ft 416 kts 190°
2026-05-07 04:29 51.01859 13.74468 29725 ft 417 kts 190°
2026-05-07 04:29 50.99927 13.73918 29886 ft 418 kts 191°
2026-05-07 04:29 50.96138 13.72841 30203 ft 417 kts 191°
2026-05-07 04:30 50.93288 13.72031 30478 ft 416 kts 191°
2026-05-07 04:30 50.91365 13.71486 30663 ft 415 kts 191°
2026-05-07 04:30 50.88547 13.70565 30920 ft 413 kts 196°
2026-05-07 04:30 50.85782 13.69319 31182 ft 412 kts 196°
2026-05-07 04:31 50.83067 13.68091 31438 ft 411 kts 196°
2026-05-07 04:31 50.80326 13.66853 31720 ft 409 kts 196°
2026-05-07 04:31 50.77588 13.65618 31834 ft 408 kts 196°
2026-05-07 04:31 50.74896 13.64401 31856 ft 399 kts 197°
2026-05-07 04:32 50.69609 13.61989 31858 ft 394 kts 197°
2026-05-07 04:32 50.64385 13.59383 31857 ft 393 kts 198°
2026-05-07 04:33 50.59182 13.56721 31857 ft 393 kts 198°
2026-05-07 04:33 50.53969 13.54101 31862 ft 393 kts 198°
2026-05-07 04:34 50.48760 13.51510 31868 ft 393 kts 198°
2026-05-07 04:34 50.43547 13.48930 31867 ft 393 kts 198°
2026-05-07 04:35 50.38421 13.46407 31869 ft 392 kts 198°
2026-05-07 04:35 50.33207 13.43840 31870 ft 392 kts 198°
2026-05-07 04:36 50.28083 13.41309 31876 ft 392 kts 198°
2026-05-07 04:36 50.22898 13.38756 31877 ft 392 kts 198°
2026-05-07 04:37 50.17805 13.36264 31876 ft 392 kts 198°
2026-05-07 04:37 50.12662 13.33749 31880 ft 393 kts 198°
2026-05-07 04:38 50.07452 13.31202 31897 ft 392 kts 198°
2026-05-07 04:38 50.02356 13.28721 31901 ft 391 kts 198°
2026-05-07 04:39 49.97184 13.26224 31902 ft 390 kts 198°
2026-05-07 04:39 49.92174 13.23797 31910 ft 390 kts 198°
2026-05-07 04:40 49.86940 13.21266 31906 ft 389 kts 198°
2026-05-07 04:40 49.81849 13.18808 31910 ft 388 kts 198°
2026-05-07 04:41 49.76748 13.16355 31910 ft 388 kts 198°
2026-05-07 04:41 49.71596 13.13887 31909 ft 387 kts 198°
2026-05-07 04:42 49.66548 13.11468 31546 ft 380 kts 198°
2026-05-07 04:42 49.64295 13.10390 31164 ft 374 kts 198°
2026-05-07 04:42 49.61661 13.09129 30719 ft 368 kts 198°
2026-05-07 04:43 49.59234 13.07969 30308 ft 363 kts 198°
2026-05-07 04:43 49.56840 13.06829 29892 ft 357 kts 198°
2026-05-07 04:43 49.54484 13.05711 29469 ft 351 kts 198°
2026-05-07 04:43 49.52307 13.04680 29102 ft 345 kts 198°
2026-05-07 04:44 49.50009 13.03590 28742 ft 338 kts 198°
2026-05-07 04:44 49.47812 13.02549 28386 ft 332 kts 198°
2026-05-07 04:44 49.45781 13.01587 28049 ft 327 kts 198°
2026-05-07 04:44 49.43627 13.00567 27671 ft 322 kts 198°
2026-05-07 04:45 49.41530 12.99461 27312 ft 316 kts 204°
2026-05-07 04:45 49.39601 12.98073 26947 ft 315 kts 206°
2026-05-07 04:45 49.37623 12.96622 26594 ft 314 kts 206°
2026-05-07 04:45 49.35656 12.95179 26236 ft 314 kts 206°
2026-05-07 04:46 49.33684 12.93737 25877 ft 313 kts 206°
2026-05-07 04:46 49.31720 12.92302 25518 ft 313 kts 206°
2026-05-07 04:46 49.29818 12.90917 25179 ft 312 kts 206°
2026-05-07 04:46 49.27859 12.89496 24808 ft 312 kts 206°
2026-05-07 04:47 49.25903 12.88083 24448 ft 311 kts 206°
2026-05-07 04:47 49.23947 12.86668 24080 ft 310 kts 206°
2026-05-07 04:47 49.22027 12.85277 23715 ft 308 kts 206°
2026-05-07 04:47 49.20092 12.83873 23313 ft 308 kts 206°
2026-05-07 04:48 49.18161 12.82474 22915 ft 307 kts 206°
2026-05-07 04:48 49.16233 12.81077 22545 ft 306 kts 206°
2026-05-07 04:48 49.14309 12.79683 22162 ft 305 kts 206°
2026-05-07 04:48 49.12393 12.78295 21779 ft 304 kts 206°
2026-05-07 04:49 49.10501 12.76924 21392 ft 304 kts 206°
2026-05-07 04:49 49.08595 12.75544 21021 ft 303 kts 206°
2026-05-07 04:49 49.06702 12.74172 20650 ft 302 kts 206°
2026-05-07 04:49 49.04803 12.72801 20270 ft 301 kts 206°
2026-05-07 04:50 49.02914 12.71443 19891 ft 300 kts 206°
2026-05-07 04:50 49.01028 12.70089 19521 ft 299 kts 206°
2026-05-07 04:50 48.99145 12.68737 19142 ft 298 kts 206°
2026-05-07 04:50 48.97269 12.67395 18768 ft 298 kts 206°
2026-05-07 04:51 48.95399 12.66056 18398 ft 297 kts 207°
2026-05-07 04:51 48.93552 12.64736 18000 ft 296 kts 207°
2026-05-07 04:51 48.91691 12.63408 17619 ft 295 kts 207°
2026-05-07 04:51 48.89841 12.62084 17250 ft 293 kts 207°
2026-05-07 04:52 48.87998 12.60767 16874 ft 292 kts 207°
2026-05-07 04:52 48.86166 12.59459 16516 ft 290 kts 207°
2026-05-07 04:52 48.84346 12.58160 16151 ft 288 kts 207°
2026-05-07 04:52 48.82534 12.56871 15788 ft 287 kts 207°
2026-05-07 04:53 48.80732 12.55596 15431 ft 285 kts 207°
2026-05-07 04:53 48.78939 12.54327 15078 ft 284 kts 207°
2026-05-07 04:53 48.77157 12.53066 14727 ft 282 kts 207°
2026-05-07 04:53 48.75333 12.51968 14371 ft 282 kts 202°
2026-05-07 04:54 48.73492 12.50977 14001 ft 281 kts 202°
2026-05-07 04:54 48.71653 12.49987 13636 ft 279 kts 202°
2026-05-07 04:54 48.69863 12.48923 13382 ft 272 kts 212°
2026-05-07 04:54 48.68387 12.47209 13281 ft 273 kts 224°
2026-05-07 04:55 48.66946 12.45277 12557 ft 272 kts 222°
2026-05-07 04:55 48.65513 12.43433 11805 ft 269 kts 221°
2026-05-07 04:55 48.63897 12.42080 11246 ft 280 kts 197°
2026-05-07 04:55 48.61914 12.41916 10727 ft 291 kts 177°
2026-05-07 04:56 48.59897 12.42323 10234 ft 293 kts 175°
2026-05-07 04:56 48.57899 12.42965 9742 ft 296 kts 167°
2026-05-07 04:56 48.55956 12.43935 9303 ft 285 kts 165°
2026-05-07 04:56 48.54153 12.44895 9035 ft 265 kts 165°
2026-05-07 04:57 48.52449 12.45821 8773 ft 259 kts 165°
2026-05-07 04:57 48.50758 12.46745 8520 ft 259 kts 165°
2026-05-07 04:57 48.49073 12.47670 8258 ft 255 kts 165°
2026-05-07 04:57 48.47415 12.48547 7999 ft 249 kts 172°
2026-05-07 04:58 48.45751 12.48528 7751 ft 236 kts 202°
2026-05-07 04:58 48.44407 12.47256 7497 ft 228 kts 229°
2026-05-07 04:58 48.43394 12.45462 7267 ft 221 kts 234°
2026-05-07 04:58 48.42456 12.43660 7018 ft 218 kts 234°
2026-05-07 04:59 48.41527 12.41874 6774 ft 216 kts 236°
2026-05-07 04:59 48.40905 12.39875 6505 ft 211 kts 263°
2026-05-07 04:59 48.40852 12.37701 6288 ft 201 kts 271°
2026-05-07 04:59 48.40796 12.35792 6287 ft 172 kts 264°
2026-05-07 05:00 48.40665 12.34075 6283 ft 161 kts 264°
2026-05-07 05:00 48.40538 12.32408 6287 ft 160 kts 264°
2026-05-07 05:00 48.40410 12.30742 6209 ft 160 kts 264°
2026-05-07 05:00 48.40283 12.29088 6094 ft 159 kts 264°
2026-05-07 05:01 48.40155 12.27443 5971 ft 158 kts 263°
2026-05-07 05:01 48.39980 12.25814 5828 ft 157 kts 262°
2026-05-07 05:01 48.39831 12.24183 5710 ft 157 kts 263°
2026-05-07 05:01 48.39700 12.22551 5580 ft 157 kts 264°
2026-05-07 05:02 48.39577 12.20920 5449 ft 157 kts 264°
2026-05-07 05:02 48.39456 12.19294 5325 ft 156 kts 265°
2026-05-07 05:02 48.39337 12.17671 5206 ft 156 kts 265°
2026-05-07 05:02 48.39219 12.16052 5099 ft 156 kts 264°
2026-05-07 05:03 48.39100 12.14436 5025 ft 155 kts 264°
2026-05-07 05:03 48.38982 12.12821 5010 ft 155 kts 264°
2026-05-07 05:03 48.38863 12.11207 4998 ft 156 kts 264°
2026-05-07 05:03 48.38744 12.09585 4982 ft 156 kts 264°
2026-05-07 05:04 48.38626 12.07991 4863 ft 156 kts 264°
2026-05-07 05:04 48.38507 12.06375 4685 ft 155 kts 264°
2026-05-07 05:04 48.38388 12.04766 4485 ft 154 kts 264°
2026-05-07 05:04 48.38269 12.03169 4282 ft 153 kts 264°
2026-05-07 05:05 48.38151 12.01579 4062 ft 153 kts 264°
2026-05-07 05:05 48.38033 11.99998 3864 ft 152 kts 263°
2026-05-07 05:05 48.37916 11.98421 3656 ft 151 kts 264°
2026-05-07 05:05 48.37799 11.96855 3460 ft 151 kts 263°
2026-05-07 05:06 48.37682 11.95298 3272 ft 150 kts 264°
2026-05-07 05:06 48.37565 11.93744 3062 ft 150 kts 264°
2026-05-07 05:06 48.37448 11.92182 2853 ft 150 kts 263°
2026-05-07 05:06 48.37331 11.90623 2647 ft 150 kts 263°
2026-05-07 05:07 48.37212 11.89055 2437 ft 150 kts 263°
2026-05-07 05:07 48.37094 11.87492 2212 ft 150 kts 263°
2026-05-07 05:07 48.36977 11.85943 2009 ft 148 kts 263°
2026-05-07 05:07 48.36860 11.84401 1806 ft 149 kts 261°
2026-05-07 05:08 48.36743 11.82856 1621 ft 148 kts 263°
2026-05-07 05:08 48.36628 11.81355 1481 ft 139 kts 263°
2026-05-07 05:08 48.36550 11.80283 1480 ft 54 kts 264°
2026-05-07 05:08 48.36504 11.79862 1477 ft 27 kts 250°
2026-05-07 05:09 48.36415 11.79631 1480 ft 22 kts 233°
2026-05-07 05:09 48.36354 11.79507 1476 ft 14 kts 232°
2026-05-07 05:09 48.36300 11.79400 1479 ft 12 kts 233°
2026-05-07 05:09 48.36255 11.79318 1481 ft 9 kts 218°
2026-05-07 05:10 48.36190 11.79300 1476 ft 10 kts 170°
2026-05-07 05:10 48.36114 11.79313 1478 ft 12 kts 174°
2026-05-07 05:10 48.36039 11.79326 1478 ft 10 kts 173°
2026-05-07 05:10 48.35978 11.79336 1485 ft 8 kts 174°
2026-05-07 05:11 48.35931 11.79347 1485 ft 6 kts 161°
2026-05-07 05:11 48.35904 11.79394 1480 ft 6 kts 115°
2026-05-07 05:11 48.35904 11.79465 1479 ft 8 kts 93°
2026-05-07 05:11 48.35859 11.79519 1482 ft 10 kts 167°
2026-05-07 05:12 48.35790 11.79532 1472 ft 10 kts 174°
2026-05-07 05:12 48.35724 11.79543 1481 ft 9 kts 174°
2026-05-07 05:12 48.35667 11.79551 1473 ft 6 kts 175°
2026-05-07 05:12 48.35649 11.79582 1479 ft 3 kts 97°
2026-05-07 05:13 48.35651 11.79627 1484 ft 5 kts 83°
2026-05-07 05:13 48.35654 11.79672 1485 ft 4 kts 84°
2026-05-07 05:13 48.35657 11.79705 1481 ft 2 kts 83°
2026-05-07 05:13 48.35657 11.79710 1480 ft 0 kts 83°